Preview of NWS' New Version of Forecast
This preview is not operational and should not be used for support decisions.

Regional Weather Roundup (RWR)

Issued by National Weather Service (NWS)

                            
000
ASUS44 KJAN 190310
RWRMS 

MISSISSIPPI HOURLY WEATHER ROUNDUP
NATIONAL WEATHER SERVICE JACKSON MS
1000 PM CDT TUE JUN 18 2019

NOTE: "FAIR: INDICATES FEW OR NO CLOUDS BELOW 12,000 FEET WITH NO
SIGNIFICANT WEATHER AND/OR OBSTRUCTIONS TO VISIBILITY.

MSZ001>002-007>008-010>013-018>021-025>028-034>036-190400-
NORTHWEST MISSISSIPPI
  
CITY           SKY/WX    TMP DP  RH WIND       PRES   REMARKS
BATESVILLE       N/A     75  73  94 CALM      29.85R                  
CLARKSDALE     CLOUDY    82  72  69 CALM      29.84R                  
CLEVELAND      MOCLDY    78  78 100 S5        29.85R                  
GREENWOOD      CLOUDY    76  72  87 S3        29.86R                  
GREENVILLE     FAIR      78  72  81 S3        29.84R                  
OLIVE BRANCH     N/A     73  73 100 S5        29.85R                  
OXFORD         MOCLDY    73  72  94 S3        29.88R                  
TUNICA           N/A     75  72  88 SE5       29.85R                  
WINONA         MOCLDY    73  73 100 CALM      29.88R                  
$$

MSZ003>006-009-014>017-022>024-029>033-037>039-190400-
NORTHEAST MISSISSIPPI
  
CITY           SKY/WX    TMP DP  RH WIND       PRES   REMARKS
ABERDEEN       FAIR      72  72 100 CALM      29.88R                  
COLUMBUS AFB   FAIR      73  71  94 CALM      29.86R                  
CORINTH        FAIR      73  73 100 CALM      29.85R                  
GOLDN TRIANGLE FAIR      73  72  96 S6        29.87R                  
STARKVILLE     FAIR      72  70  94 CALM      29.89R                  
TUPELO         FAIR      75  71  87 CALM      29.86R                  
$$

MSZ040-058-190400-
CENTRAL MISSISSIPPI
  
CITY           SKY/WX    TMP DP  RH WIND       PRES   REMARKS
JACKSON INTL   FAIR      76  71  85 CALM      29.87R                  
JACKSON HAWKNS FAIR      78  73  84 CALM      29.88R                  
MADISON        FAIR      73  73 100 CALM      29.87S                  
MERIDIAN KEY     N/A     79  74  84 S6        29.89R                  
MERIDIAN NAS   MOCLDY    77  74  90 S3        29.89R                  
RAYMOND        FAIR      75  75 100 CALM      29.87R                  
VICKSBURG VKS    N/A     77  75  94 CALM      29.87R                  
$$

MSZ059>079-190400-
SOUTH MISSISSIPPI
  
CITY           SKY/WX    TMP DP  RH WIND       PRES   REMARKS
HATTIESBURG    FAIR      79  75  87 SE3       29.90R                  
LAUREL         MOCLDY    79  76  89 SE3       29.89R                  
MCCOMB         FAIR      77  73  87 CALM      29.89R                  
NATCHEZ        FAIR      78  74  87 CALM      29.89R                  
PINE BELT      FAIR      77  75  93 S5        29.90R                  
$$

MSZ080>082-190400-
COASTAL MISSISSIPPI
  
CITY           SKY/WX    TMP DP  RH WIND       PRES   REMARKS
BILOXI         FAIR      80  76  89 SW8       29.89R                  
PASCAGOULA     MOCLDY    77  74  90 CALM      29.90R                  
GULFPORT       FAIR      81  76  84 SW3       29.89R                  
$$

LAZ007>009-015>016-023>026-190400-
NORTHEAST LOUISIANA
  
CITY           SKY/WX    TMP DP  RH WIND       PRES   REMARKS
BASTROP        FAIR      73  73  98 CALM      29.87R                  
TALLULAH/VBURG FAIR      78  74  87 CALM      29.87R                  
VIDALIA        FAIR      80  73  79 CALM      29.86S                  
$$